Theta_e
293 293 293 293 293 293 293 293 293 292 291 291 291 291 292 292 292 291 291 291 292 292 292 292 292 292 291 291 293 295 295 295 296 296 297 298 298 298 298 298 299 299 298 297 296 297 298 299 300 300 301 301 301 300 300 299 300 300 301 301 301 301 301 301 301 300 300 300 300 301 301 302 301 301 301 300 301 301 302 303 304 303 303 302 301 300 301 301 301 301 301 302 303 303 305 304 304 303 303 303 303 304 305
293 293 292 292 292 292 292 292 292 291 291 290 290 290 291 291 291 291 290 290 291 291 292 292 291 290 290 291 292 294 294 294 295 295 296 296 297 297 296 296 296 296 295 294 295 296 298 299 299 299 299 299 299 298 298 297 297 298 298 298 299 299 299 299 300 300 300 300 300 299 300 301 301 301 300 300 300 300 301 302 303 302 302 301 300 299 300 300 300 301 301 301 302 302 304 304 303 303 302 303 304 305 306
292 292 292 292 292 292 292 292 292 292 291 290 290 290 290 290 291 290 289 289 290 291 291 291 290 290 290 291 291 291 292 293 294 294 294 294 295 297 297 297 296 294 294 294 295 296 297 298 298 298 298 298 297 297 296 296 296 296 296 297 297 297 297 297 297 297 298 298 298 298 299 299 299 300 300 300 299 299 300 300 301 302 301 300 300 300 299 300 300 300 299 300 301 302 303 303 303 302 301 302 304 305 306
292 291 292 292 292 292 292 292 292 293 291 291 290 290 290 290 289 289 289 289 289 290 291 290 289 290 290 291 291 290 290 291 292 293 293 293 293 295 296 296 295 294 295 295 295 296 297 297 297 297 297 297 296 296 296 295 295 295 295 295 295 295 295 295 296 296 296 296 296 296 297 297 298 298 298 299 299 298 299 299 300 301 301 300 299 299 298 298 298 298 298 298 299 300 301 302 302 302 301 301 302 304 305
291 291 291 291 291 292 292 292 291 291 291 290 290 290 289 289 289 289 289 289 289 290 289 289 289 289 290 291 291 291 291 292 292 293 293 293 293 293 292 293 294 294 295 296 296 296 296 296 296 296 296 295 295 296 295 295 295 294 294 294 294 294 294 294 294 294 294 294 294 294 294 295 295 296 297 297 298 298 298 298 299 300 300 299 298 297 297 296 297 297 297 297 298 299 299 300 301 302 301 300 301 302 304
291 292 292 291 291 291 291 291 290 290 290 290 290 289 289 289 289 289 289 289 290 289 289 289 289 289 289 290 290 291 291 293 294 291 291 291 291 291 290 292 292 292 293 294 295 295 294 294 294 295 294 294 294 295 295 294 294 293 293 293 293 293 294 294 294 293 294 293 293 293 293 293 293 294 295 296 296 297 297 297 297 298 298 297 296 296 296 295 295 296 296 296 297 298 298 298 298 299 300 299 300 301 303
292 292 292 292 292 291 291 290 290 290 289 290 290 289 289 289 289 289 289 289 290 290 289 288 289 289 289 289 290 291 292 295 296 293 291 292 292 292 291 291 291 291 292 293 294 295 295 294 294 294 294 295 295 295 294 293 293 293 293 293 293 293 293 293 293 293 293 293 292 292 292 292 292 292 293 294 295 296 296 296 296 297 297 296 295 295 294 294 294 294 294 295 296 297 298 298 297 297 298 298 298 299 301
292 292 292 291 291 291 291 290 290 290 290 290 290 289 289 289 288 289 289 290 289 289 289 288 288 289 289 289 289 290 292 294 294 292 292 293 294 293 291 290 290 290 291 291 292 292 293 294 294 294 295 295 295 294 294 293 293 293 292 292 292 292 292 292 292 292 292 292 292 291 291 291 291 291 292 293 294 294 294 295 295 295 296 295 295 294 293 293 293 293 293 293 294 295 297 297 296 296 296 296 297 298 299
292 292 292 292 291 291 291 291 291 290 290 289 289 289 289 289 289 289 290 290 289 289 288 288 288 289 289 289 289 289 289 290 290 291 292 294 294 293 293 292 292 291 291 291 291 292 292 292 293 293 293 293 293 294 294 294 293 292 292 291 291 291 291 292 292 292 292 292 291 291 291 290 290 291 291 291 292 293 293 294 294 294 295 294 294 293 293 293 292 292 293 293 293 294 295 296 295 296 296 296 296 296 297
292 292 292 292 292 291 291 291 291 289 290 289 289 288 288 289 289 289 289 289 288 288 288 288 288 288 288 288 289 289 289 289 289 290 292 293 294 293 293 292 292 292 292 291 291 291 291 291 291 291 291 291 291 292 292 292 292 291 291 291 291 291 291 291 291 291 291 291 291 291 290 290 290 290 290 291 291 292 292 293 293 293 293 293 293 292 292 292 292 292 292 293 293 293 294 295 295 295 296 296 296 295 296
293 293 293 292 291 290 290 290 290 290 290 289 289 289 288 288 288 289 289 289 288 288 288 288 288 289 289 289 289 289 289 289 289 291 292 292 291 291 290 290 290 290 290 289 288 288 288 288 289 289 289 289 290 290 291 292 292 291 291 291 291 290 290 290 290 290 291 291 291 290 290 290 290 289 290 290 290 291 292 292 292 292 293 292 292 292 291 291 291 291 291 292 292 293 294 294 295 295 296 296 295 295 295
293 293 292 292 291 291 290 290 290 290 290 290 289 288 288 288 289 289 289 288 288 288 288 288 288 289 289 289 288 288 288 289 289 291 293 292 291 290 289 288 287 287 287 287 288 288 288 288 288 288 288 289 290 290 291 291 292 291 291 291 291 290 290 290 290 290 290 290 290 290 290 290 289 289 289 290 290 290 291 291 291 291 292 292 291 290 290 290 291 291 291 292 292 293 293 293 294 295 296 296 295 294 294
293 293 293 292 292 291 291 290 290 290 290 290 290 288 288 288 289 288 289 289 289 289 288 288 289 289 291 290 289 288 288 288 288 289 291 291 291 290 289 288 288 287 287 287 288 289 288 287 287 287 287 288 289 290 290 291 291 290 291 291 291 290 290 290 290 289 289 290 290 290 290 290 289 289 289 289 289 290 290 291 291 291 291 291 290 290 289 290 290 291 291 292 292 292 292 293 294 295 295 295 294 294 294
293 293 293 292 292 291 291 291 290 291 290 290 290 289 289 289 289 288 289 289 289 289 289 289 289 289 291 290 289 287 288 289 289 289 291 291 291 290 289 289 289 288 290 289 288 288 287 287 286 287 288 288 288 289 290 290 290 289 290 291 291 290 290 289 289 289 289 289 289 290 290 290 290 289 289 289 289 289 290 290 290 291 291 290 290 289 289 289 289 290 290 291 291 291 292 292 293 293 294 294 294 294 294
293 293 292 292 292 292 291 291 290 290 290 290 290 290 289 289 289 289 289 289 289 289 289 288 288 288 288 289 289 287 288 289 290 288 289 290 291 290 288 289 289 289 289 289 288 287 287 287 287 288 289 289 289 287 288 288 288 288 289 290 290 290 290 289 289 288 289 288 289 289 289 290 290 290 289 288 288 289 289 289 290 290 290 289 289 289 288 288 288 288 289 289 290 290 291 291 291 292 293 294 295 294 294
293 293 293 292 292 292 291 291 291 290 290 290 290 290 290 290 289 289 289 288 288 288 289 288 287 286 286 287 287 286 287 289 290 287 288 289 290 291 288 288 289 289 288 287 288 288 289 287 286 287 287 287 287 286 287 287 286 286 287 288 289 290 290 289 289 288 288 288 288 288 288 289 289 289 289 288 288 288 288 288 289 290 290 289 288 288 288 288 288 288 288 288 288 289 289 290 290 290 292 294 294 294 294
294 293 293 292 292 292 291 291 290 290 290 290 290 290 290 290 289 289 288 288 288 288 288 288 287 285 285 285 285 286 286 287 288 286 287 287 288 289 288 287 287 287 286 286 286 286 286 286 285 285 285 285 285 286 286 286 285 285 287 287 288 289 289 289 289 288 288 287 287 287 287 287 287 287 287 287 287 287 287 288 288 290 289 288 287 287 287 287 287 287 287 288 288 288 288 289 289 289 291 292 293 293 293
293 293 293 292 292 291 291 291 290 290 289 289 289 289 289 289 288 288 288 288 287 287 288 287 286 285 284 284 285 285 285 286 286 286 286 285 286 287 287 287 286 286 285 285 284 283 283 284 284 285 284 284 285 285 285 286 285 285 286 286 287 287 288 288 288 288 287 287 286 285 286 286 286 286 286 286 286 285 286 287 288 289 289 288 286 287 287 286 287 287 287 287 287 288 288 288 288 288 290 291 292 292 292
293 292 292 291 291 291 291 291 290 290 289 289 288 289 288 288 288 288 288 287 287 287 287 286 285 284 284 284 284 284 285 285 285 285 285 285 285 285 286 286 286 285 285 284 283 282 282 282 283 284 283 283 283 283 283 284 285 284 285 285 286 287 287 287 287 287 287 287 286 285 284 284 284 284 284 284 284 284 285 285 286 287 287 286 286 286 286 286 286 287 287 287 287 287 288 288 288 288 289 290 290 290 291
292 292 291 290 290 290 290 290 290 290 289 289 288 288 288 288 288 288 287 287 287 287 286 286 285 284 283 283 283 284 284 285 285 285 284 284 284 285 285 285 285 284 284 283 283 282 282 282 282 283 282 281 281 282 282 282 283 283 284 285 286 286 286 286 286 286 286 286 286 285 283 283 284 284 284 284 283 283 284 284 285 285 285 285 285 285 285 285 285 286 286 287 287 287 287 288 288 288 288 289 289 290 290
292 291 290 290 290 290 290 290 290 290 289 289 288 288 288 288 288 287 287 287 287 286 286 286 285 284 283 283 283 284 284 284 285 285 284 284 284 284 284 284 284 284 283 282 282 282 282 282 282 283 282 282 282 282 282 282 282 283 284 284 285 285 285 285 285 285 285 285 285 284 283 282 283 283 283 283 283 283 284 284 284 284 283 283 284 284 284 284 284 285 285 286 286 286 286 287 287 287 288 288 288 289 290
292 291 291 290 290 290 290 290 290 290 289 289 289 288 288 288 288 287 287 287 287 286 286 286 286 284 284 283 284 284 284 284 285 284 284 284 284 284 284 284 283 283 283 282 282 282 282 282 282 283 282 282 282 283 283 283 283 282 282 283 283 284 284 284 284 284 284 284 283 282 281 281 282 283 283 282 282 283 283 284 284 283 282 282 282 283 283 283 283 283 285 285 285 284 285 286 286 286 287 288 288 288 289
292 292 291 291 290 290 291 290 290 290 289 289 289 289 289 288 288 287 287 287 287 287 286 286 286 285 284 284 284 284 284 284 284 284 283 283 283 283 283 283 283 283 283 283 283 283 282 281 282 283 282 282 282 283 283 283 283 283 282 283 283 283 283 283 283 283 282 282 282 281 280 281 281 282 282 282 281 281 281 281 282 281 281 281 281 282 282 282 282 282 284 285 285 284 285 285 285 286 288 287 287 286 287
292 292 292 291 291 290 291 291 290 290 290 289 289 289 289 288 288 288 288 288 288 287 286 286 286 285 284 284 284 284 284 284 284 284 283 283 283 283 282 283 283 283 283 283 283 283 282 282 282 283 283 282 282 282 283 283 283 283 283 283 283 283 283 283 282 282 281 281 281 280 280 280 280 280 280 280 280 280 280 280 280 280 280 281 281 281 282 282 282 282 283 284 285 284 284 284 286 288 288 287 286 286 287
293 292 292 291 291 290 291 291 291 290 290 290 290 289 289 288 288 288 288 288 287 287 287 286 286 286 285 284 284 284 284 284 284 283 283 283 282 282 282 282 282 283 283 283 284 283 283 283 283 283 283 283 283 282 282 282 283 282 282 283 283 283 282 282 282 282 281 281 280 279 279 279 279 279 279 279 280 280 280 280 280 280 280 280 281 281 281 281 281 282 283 284 285 285 284 285 286 287 287 286 286 287 287
293 293 292 292 291 291 291 291 291 291 290 290 290 289 289 289 288 288 288 288 288 288 287 287 287 287 286 285 285 285 284 284 284 284 283 283 282 282 281 282 282 282 282 283 283 284 284 284 284 283 283 283 283 282 282 282 282 282 282 282 282 282 282 282 282 282 281 280 279 278 278 278 279 279 279 279 280 279 279 279 279 280 280 280 280 281 281 281 282 281 282 284 285 285 284 284 284 285 284 285 285 286 287
293 293 292 292 292 292 292 291 291 291 291 291 290 290 289 289 289 288 288 288 288 288 287 287 288 287 286 285 285 285 285 284 284 284 283 283 282 282 282 282 282 282 281 282 283 283 283 284 283 283 283 283 283 282 282 282 281 282 282 281 281 281 282 282 282 282 280 279 278 278 278 278 278 278 278 279 279 279 279 279 279 279 279 280 280 280 281 281 282 281 282 283 285 285 284 284 284 284 284 285 285 284 286
292 292 292 292 292 292 292 292 291 291 291 291 291 290 290 289 289 289 288 288 288 288 287 287 287 287 286 285 285 285 285 284 284 283 283 282 282 282 281 281 281 282 281 281 282 282 282 282 283 282 281 280 280 281 281 281 281 282 282 282 281 280 280 280 281 281 279 278 278 278 278 278 278 278 278 278 278 278 278 279 279 279 279 279 280 280 280 281 281 281 282 283 284 285 283 283 284 284 284 285 285 285 287
292 292 292 292 292 292 292 292 292 292 292 291 291 290 290 290 289 289 289 289 288 288 287 287 287 286 285 285 285 284 285 285 284 283 283 282 282 282 281 281 281 281 281 281 281 281 281 281 281 282 280 279 279 280 280 280 281 282 282 281 280 279 279 279 280 279 278 278 278 278 278 278 278 278 278 278 278 278 278 278 278 279 279 279 279 280 280 280 280 280 282 284 284 284 283 283 284 285 284 284 285 285 287
292 292 292 292 292 292 292 292 292 292 292 292 291 291 291 290 290 289 289 289 289 288 288 287 287 286 285 285 285 284 284 284 284 283 283 283 282 282 281 281 280 280 280 281 281 281 280 280 280 280 279 279 279 280 281 281 281 281 281 280 280 280 280 279 279 277 278 278 277 277 277 277 278 278 279 278 277 278 278 278 278 279 279 279 279 279 279 280 281 280 283 284 285 285 285 285 285 285 284 284 285 286 287
292 292 292 292 292 292 292 292 292 292 292 292 291 291 291 291 290 290 289 289 288 288 288 287 287 286 286 285 285 285 284 284 283 283 283 283 283 282 282 281 281 281 280 280 280 280 279 279 279 279 278 278 279 280 280 280 280 281 281 280 280 279 278 277 277 278 278 278 277 277 277 277 277 277 278 277 277 278 278 278 278 279 279 279 279 279 279 280 280 280 283 285 285 286 285 285 285 285 284 284 284 285 286
291 291 292 292 292 292 292 292 292 292 292 291 291 291 291 291 290 289 289 288 288 288 287 287 287 287 286 286 286 285 284 284 283 283 283 283 283 283 282 281 281 280 280 280 279 279 279 279 279 278 278 278 278 279 279 278 278 278 278 277 277 278 278 278 278 279 278 278 277 277 277 277 277 277 277 277 277 277 278 278 278 279 279 279 279 279 279 279 279 279 283 284 285 285 285 285 285 283 283 283 284 284 286
291 291 291 292 292 292 292 292 292 292 291 291 291 291 291 290 290 289 288 288 288 287 287 287 287 287 285 286 285 285 284 283 283 283 282 282 282 282 282 281 280 280 279 279 279 279 279 279 278 278 278 279 279 280 279 278 277 277 277 277 277 277 278 278 278 278 277 277 276 276 277 277 277 277 277 277 277 277 278 278 278 279 279 279 279 279 279 279 279 281 283 284 284 285 285 285 284 282 282 283 284 284 285
291 291 292 292 292 292 292 292 292 291 291 291 292 292 291 290 290 289 288 288 287 287 287 287 286 286 286 285 285 284 283 283 283 283 282 282 282 281 281 280 280 280 279 279 279 279 279 279 278 279 279 279 279 279 278 277 277 277 277 277 277 278 278 278 278 277 276 276 276 276 276 276 277 277 277 277 277 278 278 278 279 279 279 279 279 279 279 279 280 282 284 285 285 285 285 285 285 284 284 285 285 285 285
290 291 291 291 292 292 292 292 292 291 292 292 292 292 291 291 290 289 288 288 288 287 287 286 286 286 286 285 284 283 283 283 283 283 282 282 281 281 281 281 280 280 279 279 279 279 279 279 279 279 279 279 279 278 277 277 278 278 278 277 277 278 278 277 277 276 276 276 276 277 276 277 277 277 277 277 277 278 279 279 279 279 279 279 279 279 280 281 282 284 284 284 284 285 285 284 283 285 285 285 285 285 285
290 290 290 290 291 291 291 291 291 291 291 292 292 292 291 290 290 289 288 288 288 287 286 286 287 286 286 285 284 284 283 283 283 283 282 282 281 281 281 281 280 280 279 279 279 279 279 279 279 279 279 279 278 278 277 277 277 278 277 277 277 277 277 277 277 277 276 276 277 277 277 277 277 277 277 277 278 278 279 279 279 279 279 279 279 279 281 282 283 283 282 281 282 282 282 283 283 285 285 284 284 285 285
289 289 289 289 289 290 290 290 290 290 290 291 291 291 291 290 289 288 288 288 287 287 286 287 287 286 285 285 284 284 283 283 283 282 282 282 282 281 281 281 280 280 280 279 279 279 278 279 279 278 278 278 278 277 277 277 277 276 276 277 277 276 276 276 277 277 277 277 277 277 277 277 278 278 278 278 278 279 280 279 279 278 278 279 279 280 281 282 283 282 282 282 281 281 282 284 285 285 285 285 285 285 285
288 288 288 288 289 289 289 289 289 289 290 290 290 291 290 290 289 289 288 288 287 287 287 287 287 286 285 284 284 284 284 283 283 283 282 282 282 281 281 281 280 280 280 279 279 278 279 279 279 278 278 277 277 277 277 277 276 276 277 277 277 277 277 277 277 278 278 278 278 278 278 279 279 279 279 280 280 280 279 279 279 279 279 279 280 281 281 282 282 283 283 283 283 282 283 284 286 285 285 285 285 285 285
287 288 288 288 288 288 288 288 288 289 290 290 290 290 290 290 290 289 289 288 288 288 287 287 286 286 285 284 284 284 284 284 283 283 283 282 282 282 281 281 280 280 280 279 279 279 279 279 278 278 278 278 277 277 277 278 277 277 278 279 278 278 278 278 278 280 280 280 280 281 281 281 281 282 282 282 281 280 279 278 278 279 279 279 280 280 281 281 282 283 284 284 284 283 282 284 286 286 285 285 285 285 285
286 287 287 288 288 288 288 288 288 288 289 290 290 290 291 290 290 290 289 289 288 288 287 287 287 286 285 284 284 284 284 283 283 283 283 282 282 282 281 281 280 280 280 280 279 279 279 279 278 278 278 278 278 277 279 279 278 278 280 281 280 279 279 280 280 281 281 281 282 282 282 282 282 282 282 281 280 278 278 278 278 279 279 279 279 280 281 282 283 283 285 285 285 284 283 284 286 286 286 286 286 286 286
286 286 287 288 288 288 288 287 287 288 289 290 290 290 290 290 290 290 289 289 288 288 287 287 287 286 285 284 284 284 284 284 283 283 283 282 282 281 281 281 280 280 280 280 280 279 279 278 278 278 278 278 278 279 280 280 279 280 282 282 282 280 280 281 281 281 281 281 281 281 282 282 282 282 282 280 278 277 278 278 278 278 278 278 279 280 280 281 282 283 284 285 285 285 285 286 286 287 287 287 286 287 287
286 286 287 287 288 288 288 288 288 289 289 289 289 290 290 290 290 290 289 289 288 288 287 287 287 286 285 284 284 284 284 284 284 283 283 282 282 281 281 281 280 280 280 280 279 279 278 278 278 278 278 279 280 281 281 280 280 281 282 282 282 282 281 280 279 280 280 280 280 280 281 282 282 282 280 278 277 277 277 277 277 277 277 278 279 280 280 281 282 282 283 284 285 286 286 287 287 287 287 287 287 287 287
286 286 286 286 287 287 287 287 288 288 289 289 289 290 290 290 290 290 289 289 288 288 287 287 287 286 285 284 284 284 284 284 284 283 283 282 282 282 281 281 281 280 280 279 279 278 278 278 278 278 279 280 281 281 281 281 281 282 282 282 282 282 281 280 279 280 281 281 281 280 282 282 282 282 278 277 277 276 277 277 277 277 277 277 278 279 280 281 281 281 283 284 286 287 287 287 287 287 288 287 287 288 288
285 286 286 286 286 287 286 287 287 288 288 288 289 289 289 290 290 290 289 289 288 288 288 287 287 286 285 284 284 284 284 284 284 283 283 283 282 282 282 281 281 280 280 279 279 278 278 278 278 279 280 281 281 281 281 282 282 282 281 280 280 280 281 281 280 280 281 281 281 282 282 281 281 281 279 278 277 276 276 276 276 277 277 277 278 278 279 279 281 282 284 285 286 287 287 287 287 287 286 286 286 288 288
285 286 286 287 287 287 286 286 286 287 288 288 288 289 289 290 290 290 289 288 288 288 287 287 286 286 285 284 284 284 284 284 284 284 283 283 283 283 282 282 281 280 280 279 279 278 278 278 279 280 281 281 281 282 282 282 282 281 281 280 279 279 281 281 281 281 281 281 281 282 282 280 279 279 278 278 277 276 276 276 277 277 277 277 278 279 280 280 281 283 284 284 284 285 286 286 285 285 285 285 286 286 287
286 286 286 287 287 287 287 287 287 287 287 288 288 289 290 290 290 290 289 289 288 288 287 286 286 286 285 285 284 284 284 284 284 284 283 283 283 283 282 282 281 280 279 279 279 278 278 279 279 280 281 281 281 281 281 281 280 280 280 280 280 281 281 281 281 281 281 281 281 281 280 278 277 278 277 277 277 277 277 277 277 278 277 277 278 279 279 280 281 282 283 283 283 283 284 284 284 283 284 284 285 285 286
287 287 286 286 286 287 287 287 287 287 287 288 288 289 290 290 290 290 289 289 289 288 288 287 286 286 286 285 285 284 284 284 284 284 284 283 283 283 282 281 280 279 279 279 278 278 278 278 279 280 281 281 280 280 280 279 279 278 278 279 281 281 280 280 280 280 281 281 280 280 278 277 277 277 277 277 277 277 277 277 277 278 277 276 276 277 277 279 280 282 282 283 283 282 282 282 282 282 282 283 284 284 285
289 288 287 287 287 288 288 288 288 288 288 288 288 289 289 290 290 289 290 290 289 289 288 288 287 287 286 285 284 284 284 284 284 284 284 283 283 282 281 280 279 279 279 278 278 278 278 279 279 280 279 279 278 279 279 278 278 279 279 280 280 280 279 279 279 277 280 279 278 277 276 276 275 275 275 275 275 275 275 275 276 276 276 276 276 277 278 279 280 281 281 282 281 280 280 280 281 282 283 283 283 283 284
291 290 289 289 288 289 289 289 289 289 289 288 288 289 289 289 289 289 289 289 289 288 288 288 287 287 286 285 284 284 284 285 284 284 283 282 282 281 280 280 279 279 279 279 279 279 278 278 279 279 278 277 277 277 279 279 279 279 280 280 280 279 278 277 277 276 277 277 276 276 276 275 275 274 273 274 274 274 274 274 274 275 275 275 277 279 281 282 282 281 280 280 280 279 279 280 281 282 283 283 283 283 284
291 291 290 290 289 290 290 289 289 289 289 289 288 288 288 289 289 289 289 289 289 288 288 287 287 286 285 285 284 285 285 285 284 283 282 281 280 280 280 280 280 279 279 279 279 279 278 278 277 278 277 277 277 278 279 280 279 279 279 279 278 277 276 276 275 275 275 274 274 274 274 274 274 274 274 274 274 274 273 273 273 274 275 276 279 281 284 285 285 283 282 280 279 279 279 280 281 282 283 283 283 283 283
291 291 290 290 289 290 289 289 289 289 288 288 288 288 288 288 289 289 289 289 289 289 288 287 287 286 285 285 285 285 285 284 283 282 281 280 280 280 280 280 280 279 279 278 278 278 277 277 277 277 276 277 278 279 279 279 280 279 279 277 276 274 274 274 274 273 273 273 274 273 273 273 273 273 273 273 273 273 273 273 273 273 275 277 280 283 285 285 285 285 285 283 281 279 279 280 281 282 283 284 284 284 284
292 291 290 290 289 289 289 289 289 288 288 288 289 289 288 289 289 289 290 290 289 289 288 287 286 285 285 285 285 286 285 284 283 282 281 280 280 280 280 279 279 279 278 278 278 278 277 277 276 276 277 278 278 278 279 279 279 278 276 275 274 273 273 273 273 273 273 273 274 273 272 272 272 272 273 273 273 273 273 273 273 273 275 277 280 284 285 285 285 285 285 284 283 280 279 279 280 281 282 283 283 284 284
292 291 291 290 290 289 289 289 289 289 288 289 289 289 289 289 289 289 289 289 289 289 288 287 286 286 286 286 286 285 284 283 282 281 280 280 280 279 279 279 279 279 278 277 277 277 277 277 277 276 277 278 279 279 279 279 278 276 275 274 273 273 273 273 272 272 273 273 272 272 272 272 272 272 272 273 273 272 272 273 273 273 274 277 281 284 284 284 284 284 284 284 283 281 280 279 279 279 280 280 281 281 282
293 292 292 291 290 290 290 290 290 290 289 289 289 289 289 289 289 289 289 289 288 288 287 287 287 286 286 286 285 285 283 282 281 280 280 280 279 279 279 279 279 278 277 277 277 277 277 277 277 277 278 279 279 279 279 278 277 275 275 274 273 273 272 272 271 271 272 272 271 271 271 271 272 272 272 272 272 272 272 272 273 273 274 277 281 284 284 284 284 284 284 283 282 281 279 278 278 277 278 278 278 279 279
294 293 293 293 292 291 291 291 291 290 290 290 290 290 290 290 289 289 289 288 288 287 287 287 287 286 286 286 285 284 283 282 281 280 280 279 279 279 279 278 278 278 277 277 277 277 277 277 278 278 278 279 279 279 278 277 275 274 274 273 273 272 272 271 271 271 271 271 271 271 271 271 271 272 272 272 271 272 272 272 273 273 274 277 281 283 283 283 283 283 283 283 282 281 279 278 277 277 277 277 277 277 277
295 295 294 293 293 293 292 292 292 291 291 290 290 290 290 290 289 289 288 288 288 287 287 287 287 286 285 285 284 283 282 281 280 280 280 279 279 278 278 277 277 277 276 276 276 277 277 277 278 278 279 279 278 278 276 275 274 273 273 272 272 271 271 272 272 271 270 270 271 271 271 271 271 272 272 272 271 271 272 272 272 273 273 276 280 283 282 282 283 283 283 282 281 280 279 278 277 276 276 276 276 277 277
295 295 295 294 294 294 293 293 292 291 291 291 290 290 290 290 289 289 288 288 288 288 287 287 286 285 284 284 283 282 281 281 280 280 279 279 278 278 277 277 277 276 276 276 276 277 277 277 278 278 278 278 277 276 275 274 273 273 272 271 271 271 271 271 271 270 271 271 271 271 271 271 271 272 272 272 272 271 272 272 272 272 273 276 280 282 282 282 282 282 282 281 281 280 278 277 276 275 275 276 276 276 276
295 295 294 293 293 294 293 292 292 291 290 290 289 288 289 289 289 289 288 287 287 287 286 286 285 284 283 283 282 282 281 280 280 280 279 279 278 277 277 277 277 276 276 276 276 276 277 277 278 278 278 277 276 275 274 274 273 272 271 270 270 271 271 270 270 271 271 271 271 271 271 271 271 272 272 272 272 272 271 272 272 272 273 276 280 281 281 281 281 282 281 281 280 279 278 276 275 275 275 275 275 275 275
294 294 292 291 291 293 292 292 291 291 290 289 288 288 288 288 288 288 287 287 286 286 285 285 284 283 283 282 282 282 281 280 280 280 279 278 278 277 277 277 276 276 276 276 276 276 276 277 277 277 276 275 274 274 274 273 272 271 270 270 271 271 270 270 270 270 270 270 270 270 271 271 271 272 272 271 271 271 271 272 272 272 272 276 281 281 281 281 281 281 281 280 279 279 277 275 274 274 274 274 274 274 275
Wind_Speed
6 6 6 7 7 7 7 6 6 6 5 5 5 5 6 6 6 5 5 6 7 7 6 6 6 4 3 2 2 3 3 3 3 4 4 5 4 4 4 4 5 6 6 5 4 4 5 5 6 6 6 6 6 7 7 8 9 9 9 9 8 7 8 9 9 9 9 9 8 8 7 6 6 6 7 7 7 8 8 7 6 6 7 7 7 7 6 6 7 7 6 6 5 5 5 5 5 4 3 3 3 4 4
5 5 6 6 7 6 6 6 7 6 6 5 4 4 5 6 6 5 5 6 6 6 7 7 7 3 3 3 3 3 3 3 3 3 4 4 4 4 4 4 5 5 5 4 4 4 5 5 6 6 6 6 6 7 7 8 9 9 9 9 9 8 9 10 9 9 9 9 8 8 7 7 6 5 6 7 7 8 8 7 6 6 6 6 6 6 6 6 7 8 7 6 5 4 4 5 5 5 4 4 5 5 6
4 5 5 6 6 6 6 6 7 8 7 6 4 3 5 6 6 5 5 5 5 6 8 8 5 2 3 3 4 4 4 4 3 3 3 3 4 4 4 4 4 4 4 4 4 4 5 5 6 6 5 5 6 6 7 9 10 10 10 9 9 9 10 10 9 8 9 9 8 8 8 7 6 6 6 7 7 7 8 7 6 6 5 5 5 6 7 8 8 10 10 8 6 4 3 3 4 5 4 5 5 7 7
5 5 6 6 6 6 6 6 7 8 8 7 5 4 5 6 6 5 5 5 6 7 9 7 5 3 3 4 5 5 4 3 4 4 4 3 3 3 4 5 5 4 5 5 5 4 4 5 5 5 4 4 5 5 7 9 10 11 9 9 9 10 10 10 10 9 9 8 8 8 7 7 6 7 6 7 7 7 7 7 6 5 5 6 6 7 9 10 9 9 11 10 9 6 5 3 3 3 3 3 4 6 7
6 7 7 7 6 6 6 6 5 5 7 7 6 5 5 5 5 5 6 6 7 8 7 6 5 4 4 4 4 4 3 3 4 4 4 3 2 2 2 3 4 4 5 5 5 4 5 5 5 5 5 4 5 6 6 7 9 10 10 9 9 9 10 9 9 10 10 9 8 8 8 7 7 6 6 6 6 6 6 6 6 6 5 6 6 7 9 9 9 8 9 9 9 7 5 4 3 2 2 2 3 5 6
8 8 8 7 7 6 6 5 5 4 5 5 5 5 5 5 5 6 6 7 7 7 6 5 5 4 4 4 4 3 3 3 4 4 4 3 2 2 3 3 4 4 5 6 6 5 5 5 5 5 4 5 5 6 7 8 8 9 9 9 9 9 9 9 9 10 10 9 8 8 8 8 7 7 6 5 5 5 5 6 6 5 5 5 6 6 8 8 8 7 7 7 7 7 6 5 4 3 3 3 3 4 5
9 8 8 8 8 7 6 6 6 5 5 5 5 5 5 5 6 7 7 7 7 7 6 5 5 5 4 4 4 3 3 5 6 6 5 5 6 6 5 5 5 5 5 6 6 6 4 4 4 5 5 5 6 6 7 7 7 7 8 8 8 9 9 9 9 9 10 9 8 7 8 9 8 8 6 5 5 5 5 5 5 5 5 5 5 6 7 8 8 8 8 7 7 6 7 6 6 5 5 4 3 3 4
10 9 8 8 8 8 8 7 7 6 6 6 6 5 6 6 6 7 7 7 7 7 6 6 5 5 5 4 4 3 4 6 7 7 7 8 8 8 7 5 5 5 6 6 5 5 4 4 4 4 4 5 5 6 6 6 6 6 7 7 8 8 9 9 9 9 9 9 9 8 9 9 9 8 7 6 5 5 5 5 5 5 5 5 5 6 7 7 7 7 7 7 7 7 7 7 7 6 6 5 4 3 3
12 11 11 10 9 8 8 8 7 6 7 6 6 6 7 7 7 7 7 7 7 7 5 5 5 5 4 4 3 3 4 4 5 6 6 6 7 6 5 4 4 4 4 4 4 4 3 3 3 3 4 4 4 4 5 6 6 5 5 5 6 8 9 9 9 8 9 10 9 8 8 8 9 8 8 7 6 5 5 5 5 5 5 5 5 5 5 5 6 6 7 8 8 8 6 6 6 5 4 5 5 3 3
15 14 13 12 10 7 8 8 8 7 7 7 7 7 6 6 6 6 7 7 7 6 5 5 5 5 4 4 4 3 3 3 3 3 4 4 4 4 4 3 3 3 2 2 3 3 3 2 2 3 3 3 3 3 4 4 4 4 4 5 6 8 8 9 9 9 9 9 9 8 7 7 8 8 8 8 7 6 6 5 5 5 5 5 5 5 4 5 5 6 7 8 8 7 5 5 5 5 4 4 4 4 4
15 14 13 11 9 7 7 8 8 8 8 8 8 7 6 5 5 6 6 7 7 6 6 6 6 5 5 4 3 3 3 2 2 3 3 3 3 3 3 2 2 2 3 3 2 3 2 2 2 2 2 2 2 3 3 3 3 3 4 5 6 7 8 8 8 8 8 8 8 8 8 7 7 8 8 8 8 7 6 5 5 5 5 5 4 4 5 5 5 6 6 7 6 6 5 5 5 5 4 3 3 4 5
14 14 13 12 11 10 9 9 9 8 9 9 8 7 6 5 5 6 6 7 7 6 6 6 5 5 5 4 3 3 3 2 2 3 4 4 4 3 3 3 3 3 3 3 3 4 3 2 1 1 1 1 2 3 3 3 3 3 4 4 5 6 7 7 7 7 8 8 8 8 8 8 7 8 8 8 8 7 6 6 5 5 5 5 5 5 5 5 5 4 4 5 6 6 6 5 5 5 5 4 4 5 5
15 15 14 14 14 13 12 11 10 9 10 10 9 7 6 6 6 6 7 8 7 7 6 6 5 5 5 5 3 2 2 2 3 3 4 4 4 4 4 5 5 5 4 4 4 4 4 3 2 2 2 2 2 3 3 3 3 3 3 4 4 5 6 7 7 6 7 7 8 8 8 8 8 8 8 8 7 7 7 6 6 5 6 5 5 5 5 5 4 4 4 5 6 6 6 5 4 4 5 5 4 4 4
16 15 14 14 14 14 13 12 10 10 10 10 9 7 7 7 7 7 8 8 8 8 7 6 5 5 5 5 4 2 2 3 3 3 5 5 5 5 5 6 6 6 6 5 4 5 5 4 3 3 3 3 3 3 3 4 4 3 3 3 4 4 5 6 6 6 6 7 8 8 8 8 8 7 8 8 8 7 7 6 6 6 6 6 5 5 5 5 5 5 5 5 6 6 6 5 5 4 4 4 4 3 3
16 15 15 14 13 13 12 11 10 9 9 9 9 8 8 8 8 8 8 8 8 8 7 6 5 5 4 4 4 2 3 4 5 4 4 5 6 6 6 6 6 6 6 5 4 5 5 4 4 3 4 4 4 3 3 4 4 3 3 3 3 3 4 5 5 7 7 7 7 8 8 9 9 8 8 8 8 8 7 7 6 6 6 6 5 5 4 5 6 6 6 6 6 6 6 6 5 5 4 4 4 3 3
15 15 15 14 13 11 11 11 10 9 9 9 9 9 9 9 8 8 8 8 8 8 7 7 6 5 4 4 3 3 3 5 5 5 4 5 6 7 6 5 5 6 6 5 5 5 6 5 3 3 3 4 3 3 3 4 4 4 3 3 3 3 3 4 4 6 7 7 8 8 8 8 8 8 7 7 8 8 7 7 7 6 6 6 5 5 5 6 6 7 7 7 7 6 6 5 5 5 4 4 4 4 3
14 14 14 13 12 11 10 10 9 9 9 9 8 8 8 8 8 8 8 8 8 8 8 7 7 6 4 3 3 3 4 4 5 5 5 5 6 6 6 5 6 7 8 7 5 4 5 4 3 3 3 3 3 2 3 4 5 4 4 3 3 3 3 3 4 4 5 6 7 7 7 7 7 7 7 6 7 7 7 7 6 7 6 6 5 6 7 7 7 7 7 6 6 6 5 5 5 5 4 4 4 4 3
11 11 11 11 11 10 9 9 9 9 8 7 7 7 8 8 8 8 8 8 9 9 9 8 7 5 4 3 3 3 4 5 5 6 6 5 5 6 6 6 7 8 10 9 7 5 5 4 4 4 3 3 3 3 3 4 4 4 3 3 3 3 3 3 3 3 4 5 5 6 6 6 6 6 6 6 6 6 6 5 6 7 6 6 6 6 6 6 6 6 5 5 5 5 5 5 5 6 5 4 4 4 3
10 9 9 9 9 9 10 10 10 9 8 7 6 7 8 8 8 8 8 9 9 9 9 8 7 5 4 3 3 4 4 5 6 6 6 6 6 6 6 6 7 8 9 10 9 7 6 5 5 5 4 4 3 3 3 4 4 4 3 3 3 3 3 3 3 3 3 4 4 5 5 5 5 5 5 5 5 5 5 5 5 6 5 5 5 5 5 5 5 4 4 4 4 5 5 5 5 6 5 5 5 4 4
10 10 9 8 8 9 10 10 10 9 8 8 8 8 9 9 9 8 8 9 9 9 10 9 8 5 4 3 4 4 4 5 6 7 7 7 7 7 6 6 7 8 9 9 8 8 7 6 6 6 5 4 4 3 4 4 4 3 3 3 3 3 3 3 3 3 3 3 3 4 4 4 4 4 4 4 5 5 4 4 4 5 5 4 4 4 4 4 4 4 4 4 4 4 4 4 5 5 5 5 5 5 4
12 12 12 11 10 10 11 11 11 10 9 9 10 10 10 10 9 9 9 9 9 9 10 10 9 6 4 4 4 5 5 5 6 7 7 7 8 8 7 7 7 8 9 8 7 7 7 7 6 6 5 4 4 4 4 4 3 3 3 2 3 3 3 3 3 3 3 3 3 3 3 3 3 3 4 4 4 4 4 4 4 4 4 4 4 4 4 4 4 4 3 3 4 4 4 4 4 5 5 6 6 5 5
15 15 15 15 14 14 14 13 12 12 11 12 12 12 12 11 10 10 10 10 10 9 10 11 10 8 6 5 5 5 5 6 7 8 8 8 8 8 7 7 8 8 8 7 7 7 7 7 6 6 5 4 4 3 4 4 3 3 3 3 3 3 3 3 3 3 3 3 3 2 3 3 3 3 3 4 4 4 3 3 3 3 3 4 4 4 4 4 4 4 3 3 3 4 4 4 5 5 5 5 5 4 4
16 17 17 17 17 16 15 15 14 14 13 13 13 13 12 12 11 11 10 10 9 9 10 10 11 10 7 6 6 6 6 7 8 8 8 8 8 7 7 7 7 8 7 7 6 6 6 6 5 5 5 4 4 4 3 3 4 4 3 3 3 3 3 3 3 2 2 2 2 2 2 2 3 3 3 4 4 4 4 3 3 3 3 3 4 4 4 4 4 4 3 3 3 4 4 5 5 5 5 5 5 4 4
17 17 17 17 17 16 15 15 15 15 14 13 13 12 13 12 12 12 11 11 10 10 10 10 10 10 7 6 6 6 7 7 8 8 8 8 7 6 6 6 7 7 7 6 6 6 6 5 5 4 4 4 4 4 3 3 3 3 3 3 3 3 3 3 3 3 3 2 2 1 2 2 3 3 3 4 4 4 4 4 4 4 4 4 4 4 4 4 4 4 3 3 3 3 3 4 4 5 5 4 4 4 4
18 18 18 17 17 16 16 15 15 15 14 14 14 13 13 13 12 12 12 11 12 11 11 10 10 10 8 7 7 7 8 8 8 9 9 8 7 6 7 7 7 7 7 6 6 6 5 5 4 4 4 4 4 4 4 3 3 3 3 3 3 3 3 3 3 3 3 2 1 1 2 3 3 3 4 4 5 5 5 4 4 4 4 4 4 4 4 4 4 4 3 3 3 3 3 3 3 4 4 4 4 4 4
17 17 18 17 17 16 16 15 15 15 15 15 15 14 14 13 12 12 12 12 12 12 11 11 11 11 10 9 8 8 8 8 9 9 9 8 7 6 7 7 7 7 7 7 6 5 5 5 4 4 4 4 4 4 4 4 3 4 4 3 3 3 3 3 3 3 2 2 2 2 3 3 4 4 4 5 5 5 5 4 4 4 4 4 5 5 4 4 4 4 3 3 3 3 3 3 3 3 4 4 4 4 4
16 16 16 17 17 16 16 16 16 16 16 15 15 15 15 14 13 13 13 13 13 13 11 11 10 11 11 10 9 9 9 9 9 9 9 8 8 6 6 7 7 8 8 7 7 7 6 5 4 4 4 4 4 4 4 4 4 4 4 4 3 3 3 3 3 3 2 2 2 3 3 4 4 4 5 5 5 5 4 4 4 4 4 4 5 5 4 4 4 4 3 3 3 3 3 3 4 4 4 4 5 5 4
15 15 15 16 16 17 17 16 16 16 15 15 15 16 16 15 15 14 14 14 14 13 12 10 9 8 9 9 9 9 9 9 9 9 9 8 8 7 7 7 7 8 7 7 7 7 6 6 5 4 4 4 4 3 3 3 3 4 4 4 4 3 3 3 3 3 2 2 3 3 3 4 4 4 4 4 4 4 4 4 4 4 5 5 5 5 4 4 4 4 3 3 3 3 3 3 4 4 4 4 4 4 3
16 16 16 16 17 17 17 16 16 16 15 15 16 16 16 15 14 14 14 14 14 14 13 11 10 8 8 8 8 8 9 9 9 9 9 9 9 9 8 7 7 7 7 7 7 7 8 7 6 5 5 5 4 4 3 3 3 3 4 4 3 3 3 3 3 3 2 2 3 3 4 4 4 4 4 4 4 4 4 4 4 5 5 5 5 5 5 4 4 4 3 3 3 3 3 4 5 5 5 4 4 4 3
15 16 16 17 17 17 16 15 15 15 15 16 16 16 15 14 13 12 12 12 13 14 13 12 11 10 10 9 8 8 9 9 9 9 9 10 10 10 9 8 7 7 6 6 6 7 7 7 6 6 6 5 4 4 3 3 3 3 3 3 3 3 3 3 3 3 3 3 3 3 4 4 4 4 4 4 4 4 4 4 4 5 5 5 5 5 5 5 4 4 3 3 4 5 5 5 5 5 5 4 4 3 3
12 14 15 16 16 16 16 15 15 14 14 14 14 14 14 13 12 11 10 10 11 12 11 11 11 12 11 10 10 10 9 9 10 9 9 10 11 11 10 9 8 7 6 6 6 6 7 6 6 5 6 5 4 4 4 4 3 3 3 3 4 3 3 3 2 3 3 3 3 4 5 5 4 4 4 4 4 4 4 4 5 5 5 5 5 5 5 4 4 4 3 3 4 4 5 5 5 5 5 4 4 4 4
12 13 14 15 16 17 17 16 15 13 12 12 12 12 11 10 10 10 9 10 10 10 9 8 9 10 9 9 9 9 8 8 8 8 7 8 9 9 8 7 7 7 7 7 6 6 6 6 6 5 5 5 4 4 5 5 4 4 4 4 4 3 3 2 2 3 3 3 4 4 5 4 4 4 4 4 4 3 4 4 4 5 5 5 5 5 4 4 3 3 3 3 3 3 4 5 5 5 4 4 5 5 5
12 14 15 16 16 17 17 16 15 13 13 12 11 11 9 8 8 9 9 9 10 10 9 8 7 6 6 6 7 8 8 8 9 9 8 8 8 8 7 7 7 7 7 7 6 6 6 7 6 6 5 5 4 4 5 6 5 5 5 4 4 3 3 2 2 2 3 3 4 4 4 4 4 4 4 3 3 3 4 4 4 5 5 5 5 5 4 3 3 2 3 3 4 4 4 4 4 4 5 5 5 5 5
9 11 12 13 14 15 16 15 15 14 13 13 12 11 10 9 8 9 9 10 10 10 9 9 8 7 7 7 7 8 8 9 10 10 10 9 9 9 9 9 8 7 7 6 6 6 6 6 6 6 6 6 6 6 6 5 5 5 4 4 3 3 2 2 2 2 3 3 4 4 4 3 3 3 3 3 3 3 3 4 4 4 5 5 5 4 4 3 2 2 3 3 3 4 4 4 4 4 6 6 6 5 4
6 6 7 8 10 11 12 12 12 12 11 11 10 10 10 9 9 10 9 9 9 9 9 9 9 9 8 8 8 9 9 10 10 11 11 10 10 10 11 11 10 8 7 6 6 6 6 6 6 6 6 6 6 6 5 5 4 4 4 3 3 2 2 2 2 2 3 3 4 4 3 3 3 3 3 3 3 3 3 3 3 3 4 4 4 4 3 2 2 2 3 2 2 2 2 2 3 4 6 5 5 4 5
5 5 5 6 7 8 8 8 8 8 8 8 9 9 8 8 8 9 8 9 9 9 9 9 8 9 9 9 10 10 10 10 11 11 11 10 10 10 11 11 11 10 8 7 6 6 6 6 6 6 6 6 6 6 5 4 4 4 3 2 2 2 2 3 2 2 3 3 3 3 3 2 2 2 2 2 2 2 3 3 3 3 3 3 3 3 2 2 2 2 2 1 1 1 1 1 2 4 5 4 4 4 5
5 5 5 6 7 7 7 7 7 7 7 8 8 8 8 8 8 8 8 9 9 9 9 9 8 8 8 9 9 10 10 10 11 12 11 10 10 10 11 11 10 10 8 7 7 7 7 7 6 6 5 5 5 5 5 4 4 3 2 2 2 2 3 2 2 2 3 3 3 3 2 2 2 2 2 2 2 2 2 2 2 2 2 2 2 2 2 1 1 1 1 1 1 1 0 1 2 3 3 4 4 4 4
5 6 6 7 8 8 8 7 7 7 7 8 8 8 8 8 9 9 9 10 10 9 9 9 9 8 8 8 8 9 10 10 11 12 12 11 10 11 11 11 10 9 8 7 7 7 7 7 7 6 5 4 5 5 5 4 4 3 2 2 3 3 3 2 2 2 3 3 3 3 3 2 2 2 3 3 2 2 2 2 2 2 2 2 2 2 1 1 1 1 0 0 0 0 0 0 1 2 2 3 3 3 3
4 6 7 8 8 9 8 8 8 7 7 7 7 7 8 9 10 10 10 10 9 9 9 9 9 9 8 8 7 7 8 9 10 11 11 11 11 11 11 11 10 9 9 8 7 7 7 7 6 5 5 4 4 5 4 4 3 3 3 3 3 3 2 2 2 3 3 3 3 4 4 4 4 4 4 3 3 2 2 1 1 1 1 1 1 1 1 1 1 1 1 1 1 1 1 1 1 1 1 1 2 2 3
0 4 6 8 9 9 8 8 8 8 8 7 7 8 9 10 10 10 10 9 9 9 9 9 9 9 8 8 7 7 8 9 10 10 11 11 12 11 11 11 10 10 9 8 7 7 7 6 6 5 4 4 4 4 4 4 3 3 3 4 3 2 2 2 3 3 3 3 4 4 4 4 4 4 4 3 2 1 1 1 1 1 1 1 1 1 2 2 2 2 2 2 2 1 2 2 2 2 2 1 1 2 2
2 1 4 7 8 9 9 9 9 9 9 9 9 9 10 10 11 11 10 10 9 9 9 9 9 9 8 7 7 7 8 9 10 10 11 11 12 12 11 11 10 10 9 8 7 6 6 6 5 5 4 4 4 4 4 4 3 3 4 4 4 3 2 3 3 3 3 3 3 3 4 5 4 4 3 2 1 1 1 1 1 1 1 1 2 2 2 3 3 3 3 3 2 2 3 3 3 2 2 2 2 2 2
3 2 3 5 7 9 9 10 10 10 10 10 10 9 10 10 10 11 11 10 9 8 8 8 8 8 7 7 7 8 8 9 10 10 11 11 12 12 11 11 10 10 9 8 7 6 6 6 6 5 4 4 4 5 4 4 4 4 4 4 3 3 3 3 3 3 3 2 2 2 3 4 3 2 1 1 0 0 1 1 1 2 2 2 2 2 3 3 3 3 3 3 3 3 3 3 3 3 2 2 2 2 2
4 4 4 4 5 6 7 8 8 9 9 10 10 10 10 10 10 10 10 9 9 8 8 7 7 7 7 7 7 7 8 9 9 10 11 11 12 12 12 11 10 10 9 8 7 7 7 7 6 5 5 4 5 5 5 5 4 4 4 4 3 3 3 3 3 4 3 3 3 3 3 2 2 1 1 0 0 0 1 1 1 2 2 2 2 2 3 3 3 3 3 3 3 3 3 3 3 3 3 2 2 2 2
5 6 6 5 5 5 5 6 7 8 8 9 9 10 10 10 10 9 9 8 8 8 7 6 6 6 7 7 7 8 8 8 9 10 11 11 12 12 12 12 11 10 9 9 8 8 7 7 6 6 5 5 5 5 5 5 5 5 4 4 3 2 3 3 4 4 3 4 4 4 3 2 1 1 0 0 0 0 0 1 1 2 2 2 2 2 2 2 3 3 3 2 2 2 2 2 2 2 2 2 2 2 2
7 7 7 7 7 7 7 6 6 7 7 8 8 9 10 10 10 10 9 9 9 9 8 6 6 6 7 7 8 8 8 8 9 10 10 11 11 12 12 12 11 10 9 9 8 8 8 7 7 6 5 5 5 5 6 6 6 5 4 3 3 2 3 3 3 3 3 4 4 4 3 2 1 1 1 1 1 1 1 1 1 2 2 2 2 2 2 2 2 2 3 3 3 3 3 3 2 2 1 1 1 2 3
7 8 8 8 8 9 9 9 8 8 8 8 8 8 9 9 10 10 10 11 11 11 10 9 8 7 7 7 6 7 7 8 9 9 10 10 11 12 12 11 11 10 9 9 8 8 7 7 6 5 5 5 5 6 6 6 6 5 4 4 3 3 3 2 2 3 3 3 3 3 2 2 1 1 1 1 1 1 1 1 2 2 2 2 2 2 2 2 2 2 3 3 3 3 3 3 3 2 2 2 2 2 3
8 8 8 8 8 9 10 11 11 11 10 9 8 8 8 8 9 9 11 12 13 13 12 11 10 9 8 7 6 6 7 8 9 9 10 10 11 11 11 11 10 9 8 7 7 8 7 6 6 5 6 6 6 6 6 6 6 5 4 4 3 3 2 2 2 2 3 3 2 2 2 1 1 1 1 1 1 1 1 2 2 2 2 2 2 2 2 2 2 2 3 3 3 3 3 3 2 2 2 2 3 3 3
7 7 8 9 9 10 11 12 13 13 13 12 10 10 9 9 9 9 10 12 13 13 13 12 12 11 10 9 7 6 7 8 9 9 9 10 10 11 11 10 10 9 8 7 7 7 7 7 7 7 6 6 6 6 6 6 5 5 4 4 3 2 2 2 2 1 1 1 1 1 1 1 1 1 1 1 1 1 1 2 2 2 2 3 3 2 2 1 2 2 2 2 2 2 2 2 2 2 2 2 3 3 3
7 7 8 10 10 11 12 14 15 15 15 15 14 12 12 11 11 11 12 12 13 12 12 12 13 12 11 10 8 7 7 8 8 9 9 9 10 10 10 10 9 9 9 8 7 6 7 7 7 7 6 6 6 6 6 6 5 5 4 3 2 2 2 2 2 1 0 1 1 1 1 1 1 1 1 1 1 1 2 2 2 3 3 2 2 2 3 3 3 1 1 1 1 1 1 2 2 2 2 2 3 3 3
8 8 8 8 9 8 10 11 13 15 16 16 16 15 15 14 14 14 14 14 14 14 14 13 13 13 11 10 9 8 8 8 8 8 9 9 9 9 10 9 9 9 9 8 8 7 8 7 7 7 6 6 6 6 6 5 5 4 4 3 3 2 2 1 1 0 0 1 1 1 1 1 1 1 1 2 2 3 3 3 3 3 2 2 2 3 5 6 6 4 3 2 1 1 2 2 2 2 3 3 3 3 3
9 8 7 7 7 7 8 9 11 13 14 15 16 16 16 15 15 15 15 15 15 15 14 14 13 13 12 10 10 9 9 8 7 8 9 9 9 9 9 10 9 9 9 9 8 8 8 7 7 7 7 7 6 6 5 5 5 4 3 3 2 2 1 1 0 0 0 1 1 1 1 1 1 1 1 2 2 3 3 3 3 3 2 2 2 4 6 8 8 8 7 5 3 2 3 3 3 3 4 4 4 3 3
9 7 7 7 8 8 9 10 11 12 14 15 15 16 16 15 14 14 13 13 13 13 13 13 13 13 12 11 11 10 9 9 8 8 9 10 10 9 9 9 9 9 9 9 9 8 8 7 7 7 7 7 6 5 5 5 5 4 2 2 1 1 1 0 0 0 1 1 1 1 1 2 2 2 2 2 2 3 3 4 3 3 2 2 3 6 8 9 9 10 10 9 7 5 4 4 4 4 5 5 5 5 4
8 8 9 9 10 11 12 13 14 14 15 15 16 17 16 16 15 14 13 12 12 12 13 13 13 13 12 12 11 10 9 9 9 9 9 10 10 10 10 9 9 9 9 8 9 8 8 8 7 7 7 6 6 6 5 5 4 3 2 1 1 1 0 0 0 1 0 0 1 1 2 2 2 2 2 2 2 3 3 4 3 3 2 3 4 8 9 10 10 10 11 11 10 7 5 5 5 5 5 5 5 5 5
10 10 11 12 13 14 15 15 16 16 16 17 17 18 18 18 18 17 15 14 13 13 13 13 14 13 13 12 11 10 10 10 10 10 10 10 10 10 10 10 9 9 9 9 9 9 8 8 7 7 7 6 6 6 5 4 3 2 1 1 1 1 0 0 0 0 0 1 1 2 2 2 3 3 2 2 3 4 4 4 4 3 3 4 7 10 10 10 10 10 11 12 12 10 6 4 4 4 4 4 4 4 5
12 13 14 15 16 16 16 16 16 16 16 17 18 18 19 20 20 19 18 17 16 15 15 15 14 14 13 12 12 11 11 11 11 11 11 11 10 10 10 10 9 9 9 9 9 9 8 8 7 7 7 6 6 5 5 4 3 2 1 1 1 1 0 0 0 0 1 1 2 2 2 3 3 3 3 3 4 5 5 5 4 4 4 5 7 11 10 10 10 10 11 12 12 11 7 5 4 4 4 4 5 5 5
14 15 15 15 15 15 15 15 15 15 15 16 17 17 17 17 18 20 20 19 18 17 17 16 15 15 14 13 13 12 11 11 11 12 11 11 10 10 10 10 9 8 8 8 8 9 8 8 7 7 7 6 5 4 4 3 2 2 1 1 1 1 1 1 1 1 2 2 2 2 3 3 3 3 3 4 4 5 5 5 5 5 4 5 7 10 10 10 10 10 11 12 12 11 8 5 4 4 5 5 5 5 6
14 13 13 12 12 13 13 13 13 13 13 12 12 11 11 13 15 17 18 18 17 17 16 16 15 15 15 14 13 13 12 11 12 12 12 11 11 10 10 10 9 9 8 8 8 8 8 8 7 7 7 6 5 4 3 3 2 2 1 1 1 1 1 1 1 2 3 3 3 3 3 3 3 4 4 4 4 5 5 4 5 5 5 5 7 10 10 10 10 10 11 12 12 11 8 5 4 4 4 4 5 5 6
13 12 12 12 11 11 11 10 10 10 10 9 8 8 9 11 12 14 15 15 15 15 16 16 16 15 15 14 13 13 13 12 12 12 12 12 11 10 10 10 9 9 8 8 8 8 8 8 8 7 7 6 5 4 3 3 2 2 1 1 1 1 1 1 2 2 3 3 3 3 3 3 4 4 4 4 5 4 4 5 5 5 4 5 7 10 9 9 9 10 11 12 12 11 7 5 4 4 4 4 4 5 5
13 13 11 10 11 11 11 11 10 10 10 10 10 11 12 13 13 14 15 15 16 15 16 17 16 15 15 14 14 14 14 13 12 11 12 12 11 11 10 10 10 9 9 8 8 8 8 8 8 7 6 5 4 3 3 2 2 2 2 1 1 1 1 1 2 2 2 2 2 2 3 3 4 4 4 4 4 4 5 5 5 4 4 6 8 9 9 9 9 10 11 11 11 10 6 5 4 4 4 4 5 5 5
Wind_Direction
149 145 142 139 137 135 132 125 118 112 107 106 107 109 108 104 99 94 94 95 94 93 87 77 67 51 35 35 62 92 90 86 85 88 90 87 82 74 76 78 79 77 72 65 59 62 67 67 65 60 56 55 53 52 47 41 40 43 46 47 46 44 43 44 45 41 38 38 40 39 40 41 40 36 29 25 23 22 21 22 25 28 31 32 29 22 16 13 12 10 4 358 352 347 356 360 1 359 5 1 352 344 341
145 144 140 137 134 134 131 125 120 114 105 98 95 102 106 103 98 90 88 90 95 99 92 83 74 49 25 28 52 83 89 87 86 92 99 102 102 95 83 80 81 84 86 81 71 66 73 74 72 65 59 57 56 55 50 46 44 45 46 46 45 45 45 45 45 42 39 40 42 39 38 39 40 38 34 30 27 25 21 22 26 31 34 34 30 23 17 15 15 15 11 2 350 340 359 9 8 2 3 3 1 358 353
144 142 138 135 134 134 131 129 126 123 112 104 99 105 104 102 99 97 90 90 92 93 92 92 88 66 47 49 57 67 83 94 98 97 97 104 113 119 111 103 100 101 99 90 76 68 72 74 74 69 63 61 61 60 54 49 47 45 45 45 45 45 46 47 46 43 40 42 44 41 39 38 38 37 37 34 31 28 22 21 24 30 34 33 29 24 20 19 18 17 13 9 2 353 3 16 18 12 8 6 4 3 357
154 149 145 143 141 140 138 137 134 130 125 125 127 124 109 106 106 105 97 91 87 85 91 94 95 77 68 66 66 61 73 90 102 97 88 89 97 108 112 113 113 115 106 93 79 69 71 75 78 79 72 69 69 67 59 53 49 47 45 43 43 45 47 48 47 45 44 45 47 45 41 40 39 38 38 37 34 30 24 22 21 24 30 31 30 27 23 22 20 17 14 12 10 6 1 3 16 30 20 9 3 7 4
162 159 154 151 149 147 144 140 135 128 127 130 131 125 115 113 112 106 98 92 89 87 90 92 92 81 74 74 74 65 65 83 97 97 95 94 90 75 87 103 113 116 108 100 90 75 74 78 84 88 84 78 74 72 66 57 51 47 45 43 43 44 48 49 48 44 45 47 49 49 45 43 42 41 40 38 35 32 28 25 22 21 26 27 26 26 24 23 21 17 15 12 11 13 6 355 351 24 28 14 7 15 13
168 166 160 156 154 150 142 134 126 120 118 119 120 118 115 113 110 104 101 99 96 94 92 91 90 85 77 77 79 74 69 79 90 96 104 107 100 79 75 90 104 108 105 104 102 91 83 83 87 87 84 79 73 70 67 60 53 47 45 44 43 44 48 50 50 46 46 47 49 51 48 46 45 44 43 39 35 33 31 28 24 22 29 31 29 27 26 24 22 16 15 12 11 11 12 2 349 350 12 15 11 13 17
171 168 163 158 154 148 141 136 133 131 125 121 119 119 118 116 114 111 109 105 102 99 98 96 94 91 84 80 79 78 76 83 89 94 98 98 94 88 80 82 90 97 91 94 99 106 105 98 90 85 77 70 65 63 63 60 54 47 44 41 40 42 49 52 52 49 48 49 50 51 48 47 47 46 44 41 38 36 32 29 28 26 33 37 37 33 30 27 23 18 16 12 9 6 11 11 7 358 1 2 3 2 13
169 167 164 161 159 156 153 149 145 142 136 134 134 135 133 130 126 121 118 113 109 107 106 104 101 97 92 87 84 83 85 90 94 100 104 102 98 91 85 81 80 80 79 78 80 90 92 87 79 76 67 59 56 57 61 61 57 50 45 39 37 40 48 52 52 50 49 50 50 51 49 47 47 47 45 43 42 41 36 34 32 30 34 39 40 37 33 29 25 20 16 13 11 9 11 16 19 15 359 351 347 345 1
172 170 167 167 167 164 155 150 146 143 141 141 142 143 143 140 136 130 125 120 115 112 109 105 100 96 94 92 90 87 90 96 105 113 115 114 111 106 106 101 92 79 74 67 59 52 45 43 47 58 58 52 49 54 61 60 57 53 48 41 37 40 47 51 51 50 50 50 50 50 50 48 46 46 45 44 44 44 42 40 36 33 36 40 42 40 35 30 26 21 17 16 15 14 14 17 22 25 4 349 341 337 347
174 172 169 168 165 158 151 148 147 148 146 146 146 149 150 146 138 131 125 119 116 113 108 102 97 94 92 90 90 90 94 103 115 126 124 121 121 123 126 122 112 101 86 71 61 56 43 37 40 52 61 59 55 55 64 65 65 64 58 48 42 41 47 50 51 50 49 49 49 49 50 49 47 45 44 43 44 44 44 42 39 38 38 40 43 43 35 29 26 22 18 16 15 12 11 13 16 19 9 353 343 347 351
169 169 167 163 159 156 155 155 155 155 152 151 152 156 154 145 133 126 122 118 115 113 109 105 102 99 95 93 92 95 97 101 109 117 111 107 105 109 112 111 112 119 122 116 106 103 81 61 54 62 72 78 75 70 73 77 81 79 68 56 47 41 45 49 51 49 48 48 49 48 48 49 48 45 44 43 44 45 45 44 42 40 39 40 42 41 34 29 26 22 18 15 11 8 11 12 10 8 4 358 358 10 3
167 168 168 165 162 162 163 164 163 160 156 156 158 160 152 141 131 128 123 119 115 113 110 108 106 105 103 101 98 95 95 96 101 110 107 100 91 85 87 89 92 103 116 121 119 113 100 84 65 63 62 69 77 79 77 77 78 76 71 65 56 45 43 47 51 51 48 48 50 49 49 49 48 46 43 43 44 47 47 47 46 44 40 40 40 38 33 28 24 22 17 13 11 12 16 15 10 5 5 9 16 20 11
171 172 171 169 167 166 168 169 167 164 159 158 158 158 148 140 134 132 126 121 117 115 111 108 106 105 106 104 99 93 98 97 98 101 109 108 104 97 93 91 91 91 93 98 103 106 107 105 94 70 66 63 65 75 79 78 76 73 74 72 66 55 47 47 50 52 49 49 50 50 49 49 49 47 44 42 44 46 47 48 47 46 43 42 41 38 31 25 20 18 15 15 16 19 18 15 12 8 10 17 23 19 8
175 174 172 172 171 168 168 168 167 165 161 157 154 153 148 143 139 137 131 126 123 120 115 111 107 104 102 101 100 94 98 99 99 95 106 111 114 112 108 104 100 94 90 89 92 101 110 114 112 95 89 80 72 69 81 82 78 70 72 72 71 64 54 50 49 51 51 50 49 51 50 50 51 51 45 43 43 45 47 47 46 47 46 45 43 40 32 25 20 19 16 16 17 19 19 19 16 10 12 20 24 16 6
177 176 174 173 172 169 166 165 166 165 159 155 154 155 152 148 145 142 135 129 124 119 115 111 106 101 98 98 99 92 95 101 103 99 102 110 116 118 116 114 109 103 96 93 93 100 106 109 108 102 95 90 84 75 82 82 78 70 67 70 71 69 63 56 52 50 51 51 51 52 50 51 52 53 50 47 46 47 48 47 47 49 48 47 43 40 33 28 25 23 20 18 16 17 19 19 16 8 10 17 21 13 12
178 176 174 173 171 168 166 164 162 159 157 159 160 159 153 149 145 141 133 127 121 117 113 110 106 100 99 100 101 100 99 102 105 103 102 108 113 117 115 114 112 111 109 105 102 102 103 102 98 96 90 87 86 86 87 84 80 71 69 70 70 70 67 62 56 52 51 51 51 52 52 52 53 53 53 51 50 49 49 48 48 50 49 47 42 36 31 28 26 24 22 20 18 16 15 14 12 7 9 15 18 15 16
177 176 173 171 168 166 163 158 155 157 161 163 162 155 147 142 138 135 131 127 123 119 117 114 110 106 106 108 108 109 105 105 106 104 103 105 110 115 112 112 114 117 118 118 114 108 107 105 100 94 89 86 86 89 90 86 82 74 72 70 69 68 67 65 62 57 52 50 50 50 51 52 52 51 52 53 53 51 50 48 49 51 51 48 41 36 32 28 25 20 18 17 15 12 9 9 11 13 14 15 16 15 17
175 174 170 167 163 160 155 153 156 161 163 161 155 147 141 138 137 137 135 131 127 124 121 118 114 113 115 115 111 109 110 110 109 107 106 107 109 112 114 117 121 123 124 124 124 122 119 116 110 99 90 85 83 83 84 85 83 77 74 73 72 71 69 68 66 64 59 54 49 47 48 49 50 49 50 53 54 53 52 51 51 53 52 49 42 38 34 29 23 17 13 11 9 6 4 8 13 17 17 15 12 8 11
170 166 162 159 156 154 154 157 160 162 161 158 153 146 143 142 143 143 139 134 130 128 124 120 116 115 116 115 112 110 113 113 111 109 109 108 107 108 114 120 124 126 125 126 127 129 125 120 113 105 99 94 88 84 84 87 88 85 81 80 81 76 72 70 68 68 66 60 52 44 44 47 50 50 49 51 54 55 55 55 54 54 53 50 46 42 37 30 22 14 9 8 8 6 5 9 13 15 16 14 9 1 5
163 158 155 156 158 159 161 163 163 163 163 160 155 150 149 148 148 147 142 137 133 131 126 122 120 118 120 122 120 118 117 113 110 108 109 107 105 105 110 116 121 122 123 125 127 129 124 120 115 111 111 110 105 98 95 96 97 96 94 90 87 81 77 73 70 67 67 64 57 46 39 43 49 53 49 48 50 55 55 56 56 56 53 51 50 46 39 30 21 11 6 7 10 9 9 11 12 11 15 15 12 7 9
163 160 161 164 168 169 170 170 169 168 166 164 161 159 157 156 154 152 147 142 137 134 131 128 126 128 135 137 134 128 124 118 113 111 110 108 108 108 112 116 118 118 119 121 122 122 119 117 115 113 115 116 115 109 106 105 105 104 102 96 91 88 85 79 72 66 66 65 60 49 36 39 49 57 51 48 48 52 54 54 55 55 54 54 52 47 40 31 22 12 7 9 11 9 10 11 13 14 17 16 14 11 10
167 168 170 172 173 175 175 175 173 171 170 169 168 166 163 161 158 156 151 144 139 138 137 135 134 139 146 149 144 136 130 123 118 116 114 113 113 116 120 120 118 116 116 116 114 111 111 112 113 112 114 115 114 110 110 111 111 108 104 101 99 98 94 86 78 71 69 67 63 49 36 39 49 58 56 53 51 53 54 54 53 52 53 53 51 45 37 31 24 18 13 11 11 8 10 12 15 19 20 15 10 7 8
172 174 176 176 177 178 177 176 174 174 174 173 171 168 165 163 161 159 154 149 145 144 144 141 140 144 150 152 147 139 132 126 122 119 117 117 119 124 126 123 120 116 115 114 111 107 108 109 110 112 115 116 113 110 112 113 114 113 109 107 105 104 97 93 89 86 77 72 67 56 43 45 53 58 61 60 60 58 57 55 52 47 48 49 48 42 35 30 26 23 16 13 12 13 15 15 16 21 19 10 2 1 3
176 178 179 178 178 179 178 177 176 177 175 173 172 170 167 165 163 161 158 153 149 148 148 145 143 145 149 150 147 140 134 129 126 122 121 122 125 128 126 123 119 116 114 112 110 108 108 108 107 110 116 117 116 111 110 110 110 111 109 107 106 105 101 98 97 97 89 82 75 66 55 56 58 59 59 61 61 59 55 52 49 46 44 42 40 37 31 27 26 25 18 15 15 21 21 21 22 24 14 5 359 1 1
180 180 180 179 179 180 179 178 178 178 176 175 173 171 169 167 166 166 161 155 151 150 151 150 148 146 150 152 151 144 138 134 130 127 127 129 130 129 125 120 116 114 112 110 109 111 110 108 107 107 111 115 116 115 112 111 110 109 106 104 103 103 102 101 99 98 95 93 83 68 65 64 63 59 57 57 58 57 53 49 47 45 42 38 34 29 25 23 24 24 21 19 21 26 26 28 29 27 11 3 1 4 1
182 181 180 179 179 181 179 179 179 179 179 177 175 172 170 169 168 168 163 159 156 156 157 156 155 152 154 156 155 149 142 138 135 133 134 135 135 133 126 120 114 111 111 111 111 111 110 108 106 104 104 105 109 113 115 116 115 112 108 105 101 99 102 102 101 97 98 94 86 70 71 69 66 61 58 56 56 55 52 50 48 46 44 40 34 27 23 22 23 24 25 25 26 26 29 30 30 28 12 6 5 5 358
182 182 181 179 178 181 180 181 181 182 181 178 175 172 171 171 171 170 167 163 161 159 159 160 159 156 155 155 154 150 144 141 140 139 138 138 137 132 124 118 114 112 112 112 111 110 108 107 104 101 98 98 101 107 115 119 118 113 110 106 102 99 103 106 104 100 98 93 85 74 73 73 70 66 62 58 55 52 49 48 47 46 44 40 36 29 26 24 24 23 29 32 30 26 30 31 30 25 16 11 8 4 356
182 182 180 179 179 182 183 183 183 183 182 179 176 174 174 174 174 173 171 167 163 159 159 160 160 156 152 151 150 148 145 144 142 141 140 137 133 124 116 112 112 113 114 113 111 111 111 111 110 107 104 102 103 106 111 113 113 111 110 108 107 108 107 104 100 98 96 91 86 79 73 72 71 70 67 62 56 50 45 43 42 42 40 36 32 27 25 23 22 21 29 34 32 23 31 32 27 20 14 11 9 4 356
181 180 179 180 181 185 185 185 184 183 182 180 179 178 178 177 175 176 174 169 163 160 160 160 159 153 149 147 147 148 146 143 142 142 141 136 129 119 114 110 109 109 111 112 112 113 114 115 116 117 115 113 112 112 108 105 104 105 107 110 112 110 101 97 97 101 96 92 86 81 72 68 66 67 67 64 59 50 43 40 39 41 38 33 28 23 20 19 18 18 29 34 31 19 29 30 25 15 10 9 8 3 355
181 179 179 180 182 185 185 186 186 186 184 183 182 181 180 178 176 177 175 169 163 161 161 160 157 153 151 150 151 152 148 146 146 148 145 137 128 119 116 113 109 105 105 107 110 113 115 117 118 118 119 120 119 116 108 103 101 103 107 107 105 98 96 99 105 107 99 90 83 77 70 65 60 58 62 62 58 49 41 36 35 38 36 32 26 21 18 16 17 17 28 36 34 27 32 29 22 10 8 8 8 3 360
183 182 181 181 182 184 185 187 188 189 187 185 183 182 180 177 175 173 171 166 161 158 159 157 155 154 155 155 156 155 152 151 151 152 145 134 126 120 118 115 113 108 104 102 103 107 110 111 112 114 117 119 118 112 105 101 100 101 102 102 101 102 107 110 108 100 92 82 74 69 65 61 56 52 54 56 55 48 39 34 33 33 33 30 26 20 16 15 17 21 30 36 36 32 32 26 18 10 10 10 11 8 10
185 184 183 183 183 185 186 187 187 188 187 186 184 183 179 174 170 167 165 160 156 153 153 153 154 155 156 155 154 151 152 151 150 146 136 126 121 118 117 115 114 112 110 107 106 106 108 109 111 113 114 114 111 104 102 103 103 103 102 103 106 110 108 103 95 89 82 77 72 68 64 59 55 50 48 50 50 47 38 34 32 30 29 28 26 20 16 14 17 28 36 37 35 30 29 23 16 8 11 16 18 17 15
188 187 187 186 186 186 186 185 185 184 185 185 184 181 176 170 165 163 161 159 156 152 149 149 149 149 144 142 142 145 148 148 145 137 128 120 116 114 113 111 110 109 108 109 111 112 112 112 113 115 113 109 105 103 106 109 111 109 107 106 105 99 97 95 91 85 82 80 78 74 69 63 57 51 46 44 44 45 39 35 32 30 27 24 23 20 17 13 13 29 41 42 39 34 31 22 12 6 15 21 24 24 16
201 196 192 189 188 188 187 186 184 184 183 183 181 177 171 166 163 163 164 162 158 151 148 146 144 139 136 137 142 149 154 152 145 134 128 123 118 115 115 114 111 108 108 109 111 111 111 112 113 113 110 108 107 108 111 113 114 112 109 105 100 96 99 97 93 85 85 82 79 76 73 68 62 57 51 45 43 45 41 37 32 31 28 23 19 18 16 13 12 32 45 45 43 40 34 23 12 12 21 23 23 25 15
223 214 203 195 192 193 191 188 185 183 182 180 177 173 167 164 163 165 165 161 154 147 145 145 145 145 146 150 154 160 160 153 142 131 127 124 121 119 120 119 118 117 117 116 114 111 110 110 109 107 107 108 110 112 113 112 109 107 104 102 104 109 98 86 80 83 82 78 75 74 73 72 68 64 59 53 47 47 46 43 39 35 32 26 20 13 13 12 18 39 46 41 37 40 36 25 16 22 26 23 19 22 15
221 216 207 199 195 195 193 189 184 180 179 177 173 169 163 161 161 161 158 154 150 147 146 147 149 150 153 157 161 164 159 149 138 130 128 126 125 124 124 124 123 124 124 123 121 118 116 112 109 106 106 107 110 112 110 107 103 101 100 102 102 93 78 74 76 84 84 80 76 74 74 74 72 69 63 59 55 51 52 49 46 40 38 31 22 10 10 15 27 43 46 35 22 30 42 38 32 33 28 23 18 21 17
198 197 192 189 188 189 189 186 181 177 177 176 173 168 161 157 155 152 152 153 153 151 148 148 149 151 156 162 165 164 156 148 140 134 132 130 129 128 127 126 125 126 125 124 122 121 120 115 111 109 109 108 108 109 107 104 103 103 107 102 87 71 74 76 80 84 85 83 79 76 77 77 76 73 69 66 61 56 54 52 48 43 40 32 21 6 11 20 32 38 45 29 13 355 38 50 45 39 28 23 20 18 12
182 180 178 177 178 181 181 180 178 177 178 176 172 165 158 154 153 154 158 159 157 152 149 148 149 153 162 169 171 166 156 148 141 136 134 133 132 131 129 127 126 125 124 123 121 121 119 116 112 111 110 108 107 107 107 108 109 114 116 103 85 75 81 84 85 82 83 82 80 79 80 80 79 76 72 68 63 57 56 52 47 41 36 25 12 357 2 12 16 360 360 360 343 316 221 68 51 35 20 14 11 4 352
179 169 168 168 170 173 173 173 173 175 175 171 166 159 157 157 159 163 164 162 158 152 150 151 153 158 165 171 172 165 152 144 139 135 134 133 133 132 130 127 125 123 122 122 123 123 121 118 115 113 111 109 107 106 108 111 115 122 115 103 92 86 90 93 90 84 80 79 79 80 81 81 80 81 76 70 62 55 55 51 41 27 20 8 353 335 323 306 285 272 269 267 258 235 223 224 244 328 334 345 349 341 326
173 162 160 159 160 163 165 167 169 171 169 165 162 161 163 164 165 166 164 161 158 155 153 154 157 162 166 168 166 159 149 142 138 136 135 134 133 131 129 127 124 121 122 123 124 123 121 119 116 115 114 111 107 105 106 108 110 111 106 103 99 93 90 89 88 86 81 78 77 78 84 87 87 87 82 72 57 39 32 26 16 353 345 335 322 305 287 267 251 244 252 258 262 249 236 242 255 277 286 295 307 309 304
29 97 147 152 156 161 166 169 170 171 168 166 165 166 168 168 167 165 163 161 159 156 156 156 158 163 165 165 162 156 151 146 142 140 139 136 133 131 129 126 124 123 124 125 125 123 120 118 116 116 116 113 110 107 107 104 100 100 102 102 100 95 87 84 85 87 85 79 73 71 87 92 93 91 85 75 55 17 346 338 332 327 318 309 299 286 272 260 252 243 246 254 260 262 258 260 267 277 280 284 287 288 288
68 70 126 152 162 168 171 171 172 172 169 167 167 169 170 170 169 166 163 160 157 154 155 156 159 161 162 162 160 156 152 149 146 144 141 138 135 132 130 127 126 125 126 127 126 123 120 118 117 116 116 115 114 113 109 103 98 98 100 99 97 97 93 90 90 92 94 90 82 76 90 95 98 97 92 92 95 305 311 311 312 308 297 290 282 276 270 268 267 264 260 256 256 257 262 266 272 279 281 282 284 287 292
110 112 132 152 165 170 171 171 171 170 167 165 166 168 170 171 170 167 160 154 149 147 151 154 156 156 157 159 160 157 155 153 151 147 144 141 137 134 132 130 129 128 129 128 127 123 122 120 119 118 118 118 117 115 108 103 99 98 98 96 94 96 103 104 105 104 105 105 104 102 104 108 115 123 142 165 181 235 278 290 297 294 289 281 274 271 272 277 281 284 281 275 268 263 266 269 274 280 283 285 289 301 322
140 143 143 145 150 158 163 167 168 166 163 163 164 167 168 169 168 162 152 144 141 141 144 147 150 154 158 161 163 162 162 159 156 151 147 143 140 137 134 133 132 131 131 130 128 127 125 124 122 121 121 122 119 113 107 103 100 97 97 96 94 93 107 111 113 114 114 112 110 109 113 118 133 151 144 67 33 346 295 294 296 295 295 290 283 279 279 282 287 294 305 310 312 311 309 303 293 288 285 287 299 325 352
152 149 147 148 150 155 157 160 162 162 160 162 165 167 168 168 165 159 149 143 140 141 143 145 150 157 163 164 166 167 167 165 160 154 149 145 141 138 135 134 133 133 133 132 132 131 129 127 126 125 126 123 116 109 104 101 97 93 93 92 92 93 104 109 113 119 119 118 116 113 109 104 101 112 70 36 12 345 325 313 306 306 308 307 306 306 306 304 306 315 334 346 354 356 353 347 337 320 312 324 350 5 6
154 150 153 157 159 158 156 157 158 158 158 162 165 168 169 169 166 160 154 150 148 149 151 153 156 160 164 167 170 174 173 169 163 156 150 145 141 137 134 133 133 133 133 133 133 132 130 128 127 127 123 115 107 103 100 97 93 87 83 83 86 90 97 104 113 121 122 121 115 105 90 79 72 71 63 38 353 329 321 312 308 312 319 323 326 328 327 326 330 341 355 4 8 9 3 356 349 337 340 358 13 16 4
162 156 159 161 162 160 159 158 158 157 158 161 164 166 169 170 169 165 161 158 157 158 159 159 159 160 164 171 179 185 180 172 165 157 151 145 140 136 134 133 133 133 133 133 132 130 128 126 123 120 113 108 103 102 99 95 91 85 81 79 82 87 93 111 132 135 128 120 107 89 73 62 49 39 38 17 334 317 316 315 317 329 340 344 343 341 338 342 349 357 3 7 9 10 360 350 341 333 345 3 9 5 356
177 166 164 165 167 166 166 164 162 160 160 160 163 165 168 170 170 169 168 166 164 162 161 160 159 160 165 174 185 191 184 175 165 157 151 144 139 135 134 134 134 134 133 132 129 126 123 119 116 112 109 107 104 102 99 97 96 97 94 91 91 103 130 159 176 183 142 114 98 86 79 64 46 24 8 350 335 336 337 338 341 351 360 360 353 345 349 360 7 3 359 357 360 360 346 333 323 317 344 3 5 356 346
201 189 181 178 176 173 171 169 166 163 162 162 164 167 169 170 171 173 173 171 168 165 163 161 160 161 166 175 184 189 183 174 164 155 148 142 137 135 135 135 135 134 132 130 127 122 117 114 113 112 111 109 105 102 102 106 111 113 112 115 126 156 179 193 200 201 122 75 75 79 78 76 67 43 13 360 360 12 16 10 5 5 7 360 350 343 2 14 21 16 2 352 347 344 329 314 306 305 344 2 2 349 339
213 206 197 190 185 180 176 173 169 165 164 165 166 168 170 172 173 176 176 174 172 169 167 165 163 162 166 172 179 183 180 172 162 153 146 140 137 135 135 135 134 133 131 128 123 118 115 114 114 115 113 110 107 105 108 113 118 118 127 141 165 192 208 217 220 121 47 40 49 57 62 73 81 77 46 29 23 23 25 25 23 17 7 355 347 354 16 23 28 33 34 33 19 358 340 328 320 324 349 358 356 344 335
216 210 202 194 188 185 178 174 170 167 166 165 165 167 170 173 176 178 178 177 174 172 169 166 164 162 164 168 173 178 175 169 160 152 145 141 138 136 136 134 133 132 128 125 121 119 117 116 116 115 113 110 108 109 112 116 121 128 144 163 186 211 235 251 272 89 44 37 45 54 59 61 60 61 55 48 41 34 32 31 29 24 6 352 353 12 28 32 34 35 38 41 44 35 16 1 353 351 357 358 355 347 341
217 206 197 189 185 182 177 174 172 171 170 168 168 169 172 174 176 179 180 179 177 174 169 165 163 162 163 166 170 173 169 164 157 151 144 141 138 137 136 135 133 130 127 124 123 121 118 117 116 114 111 110 110 112 117 123 134 151 162 173 185 219 242 252 188 78 52 46 52 69 64 58 52 46 49 54 56 53 46 41 34 25 4 348 4 30 39 40 39 38 40 43 46 46 33 23 16 11 4 1 358 356 353
216 205 195 190 186 184 182 180 179 178 177 176 173 173 173 174 176 178 180 181 180 176 169 164 162 161 161 162 165 167 164 159 154 148 143 140 138 137 136 135 133 131 129 127 125 122 119 118 115 112 111 111 115 119 127 139 154 167 166 165 173 209 226 260 38 40 39 50 67 64 59 57 54 50 51 56 60 61 56 49 40 26 360 360 21 42 43 42 40 39 43 46 49 50 41 32 25 19 11 7 4 1 359
218 206 198 194 192 191 189 187 186 184 183 181 178 177 176 175 174 175 177 180 180 176 168 164 162 160 157 158 161 164 162 158 152 145 141 140 139 138 137 135 134 133 131 129 126 123 122 119 117 114 117 120 125 132 143 154 161 159 151 155 166 180 134 44 29 350 359 46 55 53 53 53 53 51 53 57 60 58 54 47 37 26 7 17 33 44 43 41 39 39 45 49 51 50 45 36 28 22 18 15 13 9 6
220 211 204 200 198 196 195 193 190 188 186 185 183 182 180 176 173 171 174 176 177 172 168 165 161 155 153 155 160 164 161 155 149 143 141 141 141 139 137 136 136 135 133 130 128 126 124 122 121 121 126 131 137 144 153 157 154 143 148 155 163 157 150 170 198 194 87 64 58 56 56 56 54 51 53 57 59 59 54 46 35 24 12 20 33 42 42 39 38 39 46 51 52 50 46 39 30 26 25 24 23 20 15
223 216 210 205 201 199 198 196 194 191 190 188 187 185 182 177 172 170 173 173 172 168 166 162 157 152 153 157 160 161 157 152 146 143 142 142 141 139 138 137 137 136 134 132 130 128 126 126 126 128 133 138 144 152 156 153 149 151 165 171 173 170 180 190 176 124 83 71 65 62 63 62 59 55 55 57 60 62 58 49 36 24 11 18 32 41 40 38 37 39 47 51 53 50 47 40 32 29 30 31 30 26 23
227 221 215 210 205 202 199 197 194 191 190 188 186 183 178 174 172 172 170 167 164 162 160 156 152 152 154 156 157 155 152 149 146 143 143 142 141 139 138 138 138 137 135 133 131 129 128 129 131 133 138 144 151 158 159 158 158 162 166 174 180 180 174 159 113 81 73 67 62 57 60 61 61 60 59 61 63 67 62 53 39 25 11 17 31 40 40 38 38 40 48 52 53 51 48 41 35 35 34 34 33 30 27
231 225 218 213 208 203 199 195 192 188 185 182 177 170 166 166 167 166 160 156 154 154 152 151 151 153 153 153 153 152 149 147 146 145 144 143 141 140 139 138 138 137 136 134 132 130 131 132 135 138 144 150 158 163 165 162 156 149 153 163 175 180 157 125 100 85 79 75 71 68 67 66 65 65 66 66 67 69 66 57 44 28 11 20 32 41 40 39 40 42 50 53 54 51 48 42 35 37 36 34 32 29 26
234 227 219 211 205 200 195 192 189 185 179 173 167 162 159 160 160 158 152 150 150 152 152 152 152 152 152 151 151 151 147 146 146 148 146 144 143 142 141 140 140 139 137 135 133 133 133 135 138 144 150 156 162 167 164 154 143 141 150 158 163 163 138 117 104 97 96 95 91 87 84 79 73 70 69 68 68 69 67 60 48 28 10 21 32 42 40 40 41 45 52 55 56 53 49 43 37 38 36 33 30 26 23